Sterling, IL

2:27 PM CST on November 15, 2019 (GMT -0600)
Whiteside County-Bittorf

Weather History for KSQI - July, 2019

Change the Weather History Date:

Monday, July 22, 2019

  Actual Average Record
Temperature  
Mean Temperature 72 °F -  
Max Temperature 80 °F 81 °F 93 °F (1999)
Min Temperature 61 °F 60 °F 51 °F (2000)
Cooling Degree Days 6    
Growing Degree Days 22 (Base 50)    
Moisture  
Dew Point 59 °F    
Average Humidity 65    
Maximum Humidity 90    
Minimum Humidity 42    
Precipitation  
Precipitation 0.00 in - - ()
Sea Level Pressure  
Sea Level Pressure 29.68 in    
Wind  
Wind Speed 8 mph (North)    
Max Wind Speed 16 mph    
Max Gust Speed 21 mph    
Visibility 10 miles    
Events      
Averages and records for this station are not official NWS values.
T = Trace of Precipitation, MM = Missing Value Source: NWS Daily Summary

Daily Weather History Graph

Daily Weather History Graph

Search for Another Location

Airport or City:

Astronomy

Jul. 22, 2019 Rise Set
Actual Time 5:43 AM CDT 8:26 PM CDT
Civil Twilight 5:10 AM CDT 8:59 PM CDT
Nautical Twilight 4:29 AM CDT 9:39 PM CDT
Astronomical Twilight 3:43 AM CDT 10:26 PM CDT
Moon 11:43 PM CDT (7/22) 11:03 AM CDT (7/22)
Length of Visible Light 15h 48m
Length of Day
14h 43m
Waning Gibbous, 72% of the Moon is Illuminated
Jul 22
Waning Gibbous
Jul 24
Last Quarter
Jul 31
New
Aug 7
First Quarter
Aug 15
Full

Hourly Weather History & Observations

Time (CDT) Temp. Heat Index Dew Point Humidity Pressure Visibility Wind Dir Wind Speed Gust Speed Precip Events Conditions
12:56 AM 71.1 °F - 64.0 °F 78% 29.61 in 10.0 mi North 4.6 mph - N/A   Mostly Cloudy
1:56 AM 70.0 °F - 64.9 °F 84% 29.61 in 10.0 mi NNW 4.6 mph - N/A   Partly Cloudy
2:56 AM 69.1 °F - 64.0 °F 84% 29.60 in 10.0 mi North 6.9 mph - N/A   Clear
3:56 AM 68.0 °F - 64.0 °F 87% 29.60 in 10.0 mi NNE 3.5 mph - N/A   Clear
4:56 AM 66.9 °F - 64.0 °F 90% 29.62 in 10.0 mi North 3.5 mph - N/A   Mostly Cloudy
5:56 AM 66.9 °F - 63.0 °F 87% 29.63 in 10.0 mi NNE 3.5 mph - N/A   Clear
6:56 AM 66.9 °F - 62.1 °F 84% 29.66 in 10.0 mi NE 9.2 mph - N/A   Clear
7:56 AM 69.1 °F - 61.0 °F 75% 29.68 in 10.0 mi NNE 11.5 mph - N/A   Clear
8:56 AM 72.0 °F - 60.1 °F 66% 29.69 in 10.0 mi NE 12.7 mph - N/A   Partly Cloudy
9:56 AM 73.9 °F - 59.0 °F 59% 29.69 in 10.0 mi NE 15.0 mph - N/A   Clear
10:56 AM 75.9 °F - 60.1 °F 58% 29.70 in 10.0 mi NE 11.5 mph - N/A   Clear
11:56 AM 78.1 °F - 61.0 °F 56% 29.70 in 10.0 mi NE 15.0 mph 18.4 mph N/A   Partly Cloudy
12:56 PM 80.1 °F 80.7 °F 59.0 °F 48% 29.70 in 10.0 mi NNE 15.0 mph 20.7 mph N/A   Partly Cloudy
1:56 PM 80.1 °F 80.6 °F 57.9 °F 47% 29.70 in 10.0 mi North 16.1 mph 20.7 mph N/A   Scattered Clouds
2:56 PM 79.0 °F - 55.0 °F 44% 29.70 in 10.0 mi North 15.0 mph 20.7 mph N/A   Partly Cloudy
3:56 PM 80.1 °F 80.2 °F 55.9 °F 43% 29.70 in 10.0 mi NNE 12.7 mph - N/A   Mostly Cloudy
4:56 PM 80.1 °F 80.1 °F 55.0 °F 42% 29.70 in 10.0 mi North 10.4 mph - N/A   Scattered Clouds
5:56 PM 77.0 °F - 55.0 °F 47% 29.70 in 10.0 mi North 10.4 mph 17.3 mph N/A   Scattered Clouds
6:56 PM 75.9 °F - 53.1 °F 45% 29.71 in 10.0 mi NNE 10.4 mph - N/A   Scattered Clouds
7:56 PM 73.0 °F - 55.0 °F 53% 29.72 in 10.0 mi North 5.8 mph - N/A   Partly Cloudy
8:56 PM 69.1 °F - 55.0 °F 61% 29.73 in 10.0 mi North 4.6 mph - N/A   Clear
9:56 PM 64.9 °F - 54.0 °F 68% 29.74 in 10.0 mi NNW 3.5 mph - N/A   Clear
10:56 PM 63.0 °F - 54.0 °F 72% 29.74 in 10.0 mi NNW 3.5 mph - N/A   Clear
11:56 PM 61.0 °F - 54.0 °F 78% 29.75 in 10.0 mi NNW 4.6 mph - N/A   Clear